Home   Weather   Funchal   Past weeks

Flag for Portugal Past Weather in Funchal, Madeira, Portugal — Yesterday and Last 2 Weeks

Now
75 °F

Scattered clouds.


Feels Like: 77 °F
Forecast: 74 / 81 °F
Wind: 22 mph from North

Location: Aeroporto Da Madeira

Current Time: Sep 27, 2016 at 4:36:09 PM

Latest Report: Sep 27, 2016 at 4:00 PM


Visibility: N/A

Pressure: 30.21 "Hg

Humidity: 69%

Dew Point: 64 °F

Location of FunchalLocation

Past Weather in Funchal — Graph

°F

Funchal Temperature Yesterday

Maximum temperature yesterday: 77 °F (at 3:30 PM)
Minimum temperature yesterday: 72 °F (at 3:00 AM)
Average temperature yesterday: 73 °F

High & Low Weather Summary for the Past Weeks

 TemperatureHumidityPressure
High82 °F (Sep 24, 3:30 PM)88% (Sep 13, 12:30 PM)30.27 "Hg (Sep 13, 12:30 PM)
Low68 °F (Sep 14, 3:00 AM)44% (Sep 20, 3:30 PM)30.01 "Hg (Sep 12, 3:30 PM)
Average73 °F67%30.19 "Hg
* Reported Sep 12 3:00 PM — Sep 27 3:00 PM, Funchal, Weather by CustomWeather, © 2016

Note: Actual official high and low records may vary slightly from our data, if they occured in-between our weather recording intervals... More about our weather records

Advertising

Funchal Weather History for the Previous 24 Hours

Scroll right to see more
 ConditionsComfort  
Time TempWeatherWind HumidityBarometerVisibility
3:00 PM
Tue, Sep 27
77 °FScattered clouds.21 mph65%30.21 "HgN/A
2:30 PM77 °FScattered clouds.25 mph65%30.21 "HgN/A
2:00 PM79 °FScattered clouds.22 mph61%30.21 "HgN/A
1:30 PM77 °FScattered clouds.21 mph65%30.24 "HgN/A
1:00 PM77 °FScattered clouds.23 mph65%30.24 "HgN/A
12:30 PM75 °FScattered clouds.22 mph69%30.24 "HgN/A
12:00 PM73 °FScattered clouds.21 mph74%30.24 "HgN/A
11:30 AM75 °FPartly sunny.20 mph69%30.24 "HgN/A
11:00 AM75 °FPartly sunny.21 mph69%30.24 "HgN/A
10:30 AM75 °FPartly sunny.22 mph65%30.24 "HgN/A
10:00 AM73 °FScattered clouds.22 mph74%30.24 "HgN/A
9:30 AM73 °FScattered clouds.21 mph69%30.24 "HgN/A
9:00 AM72 °FScattered showers. Scattered clouds.20 mph73%30.21 "HgN/A
8:30 AM72 °FPassing clouds.22 mph73%30.21 "HgN/A
8:00 AM72 °FPassing clouds.22 mph73%30.21 "HgN/A
7:30 AM72 °FPassing clouds.22 mph69%30.21 "HgN/A
7:00 AM72 °FPassing clouds.21 mph69%30.21 "HgN/A
6:30 AM72 °FPassing clouds.22 mph69%30.18 "HgN/A
6:00 AM72 °FPassing clouds.21 mph69%30.18 "HgN/A
5:30 AM72 °FPassing clouds.20 mph69%30.18 "HgN/A
5:00 AM72 °FPassing clouds.21 mph69%30.21 "HgN/A
4:30 AM72 °FPassing clouds.21 mph69%30.21 "HgN/A
4:00 AM72 °FPassing clouds.18 mph69%30.21 "HgN/A
3:30 AM72 °FPassing clouds.21 mph69%30.21 "HgN/A
3:00 AM72 °FPassing clouds.22 mph69%30.21 "HgN/A
2:30 AM72 °FPassing clouds.18 mph69%30.24 "HgN/A
2:00 AM72 °FPassing clouds.21 mph69%30.24 "HgN/A
1:30 AM72 °FPassing clouds.20 mph69%30.24 "HgN/A
1:00 AM72 °FPassing clouds.18 mph69%30.24 "HgN/A
12:30 AM72 °FPassing clouds.16 mph69%30.24 "HgN/A
12:00 AM72 °FPassing clouds.21 mph69%30.24 "HgN/A
11:30 PM
Mon, Sep 26
72 °FPassing clouds.21 mph69%30.24 "HgN/A
11:00 PM72 °FPassing clouds.18 mph69%30.24 "HgN/A
10:30 PM72 °FPassing clouds.18 mph69%30.24 "HgN/A
10:00 PM72 °FPassing clouds.20 mph69%30.24 "HgN/A
9:30 PM72 °FPassing clouds.17 mph69%30.24 "HgN/A
9:00 PM72 °FPassing clouds.20 mph69%30.24 "HgN/A
8:30 PM72 °FScattered clouds.16 mph69%30.24 "HgN/A
8:00 PM72 °FPassing clouds.21 mph69%30.21 "HgN/A
7:30 PM73 °FPassing clouds.18 mph65%30.21 "HgN/A
7:00 PM73 °FPassing clouds.20 mph65%30.21 "HgN/A
6:30 PM73 °FPassing clouds.16 mph61%30.21 "HgN/A
6:00 PM75 °FPassing clouds.18 mph61%30.21 "HgN/A
5:30 PM73 °FScattered clouds.22 mph65%30.21 "HgN/A
5:00 PM75 °FScattered clouds.22 mph61%30.21 "HgN/A
4:30 PM75 °FScattered clouds.18 mph61%30.21 "HgN/A
Weather by CustomWeather, © 2016

See weather overviewHow to use our weather pages